owner,sensor,date,latitude,longitude,vertical_datum,direction_of_sea_water_velocity,sea_water_speed,upward_sea_water_velocity,qcFlag 
TABS,ioos:station:wmo:42050:1,2008-02-01T00:00:00Z,28.8425,-94.2433,2.0,247.4514069,13.53462596,-99999.0,'11111222,11111222,99999999' 
TABS,ioos:station:wmo:42050:1,2008-02-01T00:30:00Z,28.8425,-94.2433,2.0,237.1711141,9.222933373,-99999.0,'11133222,11111222,99999999' 
TABS,ioos:station:wmo:42050:1,2008-02-01T01:00:00Z,28.8425,-94.2433,2.0,228.0985392,11.37984622,-99999.0,'11111222,11111222,99999999' 
TABS,ioos:station:wmo:42050:1,2008-02-01T01:30:00Z,28.8425,-94.2433,2.0,219.5757524,7.031841864,-99999.0,'11133222,11111222,99999999' 
TABS,ioos:station:wmo:42050:1,2008-02-01T02:00:00Z,28.8425,-94.2433,2.0,214.848598,7.542691827,-99999.0,'11133222,11111222,99999999' 
TABS,ioos:station:wmo:42050:1,2008-02-01T02:30:00Z,28.8425,-94.2433,2.0,173.9373234,7.290774993,-99999.0,'11133222,11111222,99999999' 
TABS,ioos:station:wmo:42050:1,2008-02-01T03:00:00Z,28.8425,-94.2433,2.0,190.056627,9.506061224,-99999.0,'11133222,11111222,99999999' 
TABS,ioos:station:wmo:42050:1,2008-02-01T03:30:00Z,28.8425,-94.2433,2.0,196.6933847,9.782279898,-99999.0,'11133222,11111222,99999999' 
TABS,ioos:station:wmo:42050:1,2008-02-01T04:00:00Z,28.8425,-94.2433,2.0,219.3293402,10.01923151,-99999.0,'11111222,11111222,99999999' 
TABS,ioos:station:wmo:42050:1,2008-02-01T04:30:00Z,28.8425,-94.2433,2.0,193.0166123,11.58776078,-99999.0,'11111222,11111222,99999999' 
TABS,ioos:station:wmo:42050:1,2008-02-01T05:00:00Z,28.8425,-94.2433,2.0,203.9398821,15.62414798,-99999.0,'11111222,11111222,99999999' 
TABS,ioos:station:wmo:42050:1,2008-02-01T05:30:00Z,28.8425,-94.2433,2.0,218.4815916,13.57937407,-99999.0,'11111222,11111222,99999999' 
TABS,ioos:station:wmo:42050:1,2008-02-01T06:00:00Z,28.8425,-94.2433,2.0,185.5729899,13.69473622,-99999.0,'11111222,11111222,99999999' 
TABS,ioos:station:wmo:42050:1,2008-02-01T06:30:00Z,28.8425,-94.2433,2.0,206.8076411,12.66073063,-99999.0,'11111222,11111222,99999999' 
TABS,ioos:station:wmo:42050:1,2008-02-01T07:00:00Z,28.8425,-94.2433,2.0,208.0062685,12.26647871,-99999.0,'11111222,11111222,99999999' 
TABS,ioos:station:wmo:42050:1,2008-02-01T07:30:00Z,28.8425,-94.2433,2.0,210.5654913,6.666310824,-99999.0,'11133222,11111222,99999999' 
TABS,ioos:station:wmo:42050:1,2008-02-01T08:00:00Z,28.8425,-94.2433,2.0,189.0785262,5.893835763,-99999.0,'11133222,11111222,99999999' 
TABS,ioos:station:wmo:42050:1,2008-02-01T08:30:00Z,28.8425,-94.2433,2.0,145.2674335,7.775409957,-99999.0,'11133222,11111222,99999999' 
TABS,ioos:station:wmo:42050:1,2008-02-01T09:00:00Z,28.8425,-94.2433,2.0,197.1441481,5.054601864,-99999.0,'11133222,11111222,99999999' 
TABS,ioos:station:wmo:42050:1,2008-02-01T09:30:00Z,28.8425,-94.2433,2.0,63.70527142,2.84431011,-99999.0,'11133222,11111222,99999999' 
TABS,ioos:station:wmo:42050:1,2008-02-01T10:00:00Z,28.8425,-94.2433,2.0,217.2112234,2.348041737,-99999.0,'11133222,11111222,99999999' 
TABS,ioos:station:wmo:42050:1,2008-02-01T10:30:00Z,28.8425,-94.2433,2.0,5.49433269,6.057829644,-99999.0,'11133222,11111222,99999999' 
TABS,ioos:station:wmo:42050:1,2008-02-01T11:00:00Z,28.8425,-94.2433,2.0,354.8744523,6.044170745,-99999.0,'11133222,11111222,99999999' 
TABS,ioos:station:wmo:42050:1,2008-02-01T11:30:00Z,28.8425,-94.2433,2.0,340.0542592,9.233899501,-99999.0,'11133222,11111222,99999999' 
TABS,ioos:station:wmo:42050:1,2008-02-01T12:00:00Z,28.8425,-94.2433,2.0,349.7183378,15.63101084,-99999.0,'11111222,11111222,99999999' 
TABS,ioos:station:wmo:42050:1,2008-02-01T12:30:00Z,28.8425,-94.2433,2.0,6.665048921,16.37063224,-99999.0,'11111222,11111222,99999999' 
TABS,ioos:station:wmo:42050:1,2008-02-01T13:00:00Z,28.8425,-94.2433,2.0,17.36073213,15.68449234,-99999.0,'11111222,11111222,99999999' 
TABS,ioos:station:wmo:42050:1,2008-02-01T13:30:00Z,28.8425,-94.2433,2.0,5.112573172,18.96544753,-99999.0,'11111222,11111222,99999999' 
TABS,ioos:station:wmo:42050:1,2008-02-01T14:00:00Z,28.8425,-94.2433,2.0,19.69029758,18.045124,-99999.0,'11111222,11111222,99999999' 
TABS,ioos:station:wmo:42050:1,2008-02-01T14:30:00Z,28.8425,-94.2433,2.0,23.6456232,18.35063214,-99999.0,'11111222,11111222,99999999' 
TABS,ioos:station:wmo:42050:1,2008-02-01T15:00:00Z,28.8425,-94.2433,2.0,11.3241252,16.04230033,-99999.0,'11111222,11111222,99999999' 
TABS,ioos:station:wmo:42050:1,2008-02-01T15:30:00Z,28.8425,-94.2433,2.0,28.99911979,14.00594874,-99999.0,'11111222,11111222,99999999' 
TABS,ioos:station:wmo:42050:1,2008-02-01T16:00:00Z,28.8425,-94.2433,2.0,39.58889216,13.19685569,-99999.0,'11111222,11111222,99999999' 
TABS,ioos:station:wmo:42050:1,2008-02-01T16:30:00Z,28.8425,-94.2433,2.0,44.41371633,11.74565877,-99999.0,'11111222,11111222,99999999' 
TABS,ioos:station:wmo:42050:1,2008-02-01T17:00:00Z,28.8425,-94.2433,2.0,38.41369204,13.80901155,-99999.0,'11111222,11111222,99999999' 
TABS,ioos:station:wmo:42050:1,2008-02-01T17:30:00Z,28.8425,-94.2433,2.0,45.52926911,8.42200095,-99999.0,'11133222,11111222,99999999' 
TABS,ioos:station:wmo:42050:1,2008-02-01T18:00:00Z,28.8425,-94.2433,2.0,48.3422922,11.76505419,-99999.0,'11111222,11111222,99999999' 
TABS,ioos:station:wmo:42050:1,2008-02-01T18:30:00Z,28.8425,-94.2433,2.0,51.65561402,12.20204081,-99999.0,'11111222,11111222,99999999' 
TABS,ioos:station:wmo:42050:1,2008-02-01T19:00:00Z,28.8425,-94.2433,2.0,60.06217281,11.78212629,-99999.0,'11111222,11111222,99999999' 
TABS,ioos:station:wmo:42050:1,2008-02-01T19:30:00Z,28.8425,-94.2433,2.0,57.70537945,10.70611508,-99999.0,'11111222,11111222,99999999' 
TABS,ioos:station:wmo:42050:1,2008-02-01T20:00:00Z,28.8425,-94.2433,2.0,61.5598325,7.79016046,-99999.0,'11133222,11111222,99999999' 
TABS,ioos:station:wmo:42050:1,2008-02-01T20:30:00Z,28.8425,-94.2433,2.0,59.75494417,10.93904018,-99999.0,'11111222,11111222,99999999' 
TABS,ioos:station:wmo:42050:1,2008-02-01T21:00:00Z,28.8425,-94.2433,2.0,59.66789583,9.801739642,-99999.0,'11133222,11111222,99999999' 
TABS,ioos:station:wmo:42050:1,2008-02-01T21:30:00Z,28.8425,-94.2433,2.0,54.31067281,10.09614283,-99999.0,'11111222,11111222,99999999' 
TABS,ioos:station:wmo:42050:1,2008-02-01T22:00:00Z,28.8425,-94.2433,2.0,45.61949348,10.4657919,-99999.0,'11111222,11111222,99999999' 
TABS,ioos:station:wmo:42050:1,2008-02-01T22:30:00Z,28.8425,-94.2433,2.0,51.68747748,11.59767649,-99999.0,'11111222,11111222,99999999' 
TABS,ioos:station:wmo:42050:1,2008-02-01T23:00:00Z,28.8425,-94.2433,2.0,48.342635,9.944697079,-99999.0,'11133222,11111222,99999999' 
TABS,ioos:station:wmo:42050:1,2008-02-01T23:30:00Z,28.8425,-94.2433,2.0,39.90875044,10.67701269,-99999.0,'11111222,11111222,99999999' 
TABS,ioos:station:wmo:42050:1,2008-02-02T00:00:00Z,28.8425,-94.2433,2.0,47.15977588,10.88303267,-99999.0,'11111222,11111222,99999999' 
TABS,ioos:station:wmo:42050:1,2008-02-02T00:30:00Z,28.8425,-94.2433,2.0,43.4565841,9.450375654,-99999.0,'11133222,11111222,99999999' 
TABS,ioos:station:wmo:42050:1,2008-02-02T01:00:00Z,28.8425,-94.2433,2.0,41.13359,10.27643907,-99999.0,'11111222,11111222,99999999' 
TABS,ioos:station:wmo:42050:1,2008-02-02T01:30:00Z,28.8425,-94.2433,2.0,51.73371281,7.960364313,-99999.0,'11133222,11111222,99999999' 
TABS,ioos:station:wmo:42050:1,2008-02-02T02:00:00Z,28.8425,-94.2433,2.0,52.27059216,7.598855177,-99999.0,'11133222,11111222,99999999' 
TABS,ioos:station:wmo:42050:1,2008-02-02T02:30:00Z,28.8425,-94.2433,2.0,46.86428858,6.303657668,-99999.0,'11133222,11111222,99999999' 
TABS,ioos:station:wmo:42050:1,2008-02-02T03:00:00Z,28.8425,-94.2433,2.0,60.90938801,7.712982562,-99999.0,'11133222,11111222,99999999' 
TABS,ioos:station:wmo:42050:1,2008-02-02T03:30:00Z,28.8425,-94.2433,2.0,101.0493941,6.469938176,-99999.0,'11133222,11111222,99999999' 
TABS,ioos:station:wmo:42050:1,2008-02-02T04:00:00Z,28.8425,-94.2433,2.0,94.84584682,5.208617859,-99999.0,'11133222,11111222,99999999' 
TABS,ioos:station:wmo:42050:1,2008-02-02T04:30:00Z,28.8425,-94.2433,2.0,76.3832229,1.656562706,-99999.0,'11133222,11111222,99999999' 
TABS,ioos:station:wmo:42050:1,2008-02-02T05:00:00Z,28.8425,-94.2433,2.0,115.4927359,1.672871782,-99999.0,'11133222,11111222,99999999' 
TABS,ioos:station:wmo:42050:1,2008-02-02T05:30:00Z,28.8425,-94.2433,2.0,149.0361054,0.174928557,-99999.0,'11133222,11111222,99999999' 
TABS,ioos:station:wmo:42050:1,2008-02-02T06:00:00Z,28.8425,-94.2433,2.0,194.7335588,2.988260363,-99999.0,'11133222,11111222,99999999' 
TABS,ioos:station:wmo:42050:1,2008-02-02T06:30:00Z,28.8425,-94.2433,2.0,199.5837375,2.20771375,-99999.0,'11133222,11111222,99999999' 
TABS,ioos:station:wmo:42050:1,2008-02-02T07:00:00Z,28.8425,-94.2433,2.0,168.9548326,3.392845414,-99999.0,'11133222,11111222,99999999' 
TABS,ioos:station:wmo:42050:1,2008-02-02T07:30:00Z,28.8425,-94.2433,2.0,198.1194542,4.598021314,-99999.0,'11133222,11111222,99999999' 
TABS,ioos:station:wmo:42050:1,2008-02-02T08:00:00Z,28.8425,-94.2433,2.0,195.4609711,4.388826722,-99999.0,'11133222,11111222,99999999' 
TABS,ioos:station:wmo:42050:1,2008-02-02T08:30:00Z,28.8425,-94.2433,2.0,209.633635,5.763904926,-99999.0,'11133222,11111222,99999999' 
TABS,ioos:station:wmo:42050:1,2008-02-02T09:00:00Z,28.8425,-94.2433,2.0,214.6607979,6.382742357,-99999.0,'11133222,11111222,99999999' 
TABS,ioos:station:wmo:42050:1,2008-02-02T09:30:00Z,28.8425,-94.2433,2.0,225.4608063,7.028869041,-99999.0,'11133222,11111222,99999999' 
TABS,ioos:station:wmo:42050:1,2008-02-02T10:00:00Z,28.8425,-94.2433,2.0,225.5127659,7.106708099,-99999.0,'11133222,11111222,99999999' 
TABS,ioos:station:wmo:42050:1,2008-02-02T10:30:00Z,28.8425,-94.2433,2.0,255.9633684,5.236344145,-99999.0,'11133222,11111222,99999999' 
TABS,ioos:station:wmo:42050:1,2008-02-02T11:00:00Z,28.8425,-94.2433,2.0,252.7882778,8.144722217,-99999.0,'11133222,11111222,99999999' 
TABS,ioos:station:wmo:42050:1,2008-02-02T11:30:00Z,28.8425,-94.2433,2.0,256.9339553,5.440854712,-99999.0,'11133222,11111222,99999999' 
TABS,ioos:station:wmo:42050:1,2008-02-02T12:00:00Z,28.8425,-94.2433,2.0,286.1839355,6.278805619,-99999.0,'11133222,11111222,99999999' 
TABS,ioos:station:wmo:42050:1,2008-02-02T12:30:00Z,28.8425,-94.2433,2.0,277.100324,8.495139787,-99999.0,'11133222,11111222,99999999' 
TABS,ioos:station:wmo:42050:1,2008-02-02T13:00:00Z,28.8425,-94.2433,2.0,287.0966263,6.497091657,-99999.0,'11133222,11111222,99999999' 
TABS,ioos:station:wmo:42050:1,2008-02-02T13:30:00Z,28.8425,-94.2433,2.0,316.6715978,5.333854141,-99999.0,'11133222,11111222,99999999' 
TABS,ioos:station:wmo:42050:1,2008-02-02T14:00:00Z,28.8425,-94.2433,2.0,310.0764252,6.508187152,-99999.0,'11133222,11111222,99999999' 
TABS,ioos:station:wmo:42050:1,2008-02-02T14:30:00Z,28.8425,-94.2433,2.0,313.974672,8.295691653,-99999.0,'11133222,11111222,99999999' 
TABS,ioos:station:wmo:42050:1,2008-02-02T15:00:00Z,28.8425,-94.2433,2.0,330.2236031,8.940425046,-99999.0,'11133222,11111222,99999999' 
TABS,ioos:station:wmo:42050:1,2008-02-02T15:30:00Z,28.8425,-94.2433,2.0,340.6611444,11.02191,-99999.0,'11111222,11111222,99999999' 
TABS,ioos:station:wmo:42050:1,2008-02-02T16:00:00Z,28.8425,-94.2433,2.0,341.9097634,12.62404056,-99999.0,'11111222,11111222,99999999' 
TABS,ioos:station:wmo:42050:1,2008-02-02T16:30:00Z,28.8425,-94.2433,2.0,352.9056271,16.35522241,-99999.0,'11111222,11111222,99999999' 
TABS,ioos:station:wmo:42050:1,2008-02-02T17:00:00Z,28.8425,-94.2433,2.0,359.2749879,18.17145564,-99999.0,'11111222,11144222,99999999' 
TABS,ioos:station:wmo:42050:1,2008-02-02T17:30:00Z,28.8425,-94.2433,2.0,2.744233221,16.91940011,-99999.0,'11111222,11111222,99999999' 
TABS,ioos:station:wmo:42050:1,2008-02-02T18:00:00Z,28.8425,-94.2433,2.0,8.394237068,16.57758728,-99999.0,'11111222,11111222,99999999' 
TABS,ioos:station:wmo:42050:1,2008-02-02T18:30:00Z,28.8425,-94.2433,2.0,8.999906229,16.49304399,-99999.0,'11111222,11111222,99999999' 
TABS,ioos:station:wmo:42050:1,2008-02-02T19:00:00Z,28.8425,-94.2433,2.0,12.38842293,14.58970185,-99999.0,'11111222,11111222,99999999' 
TABS,ioos:station:wmo:42050:1,2008-02-02T19:30:00Z,28.8425,-94.2433,2.0,11.05615491,14.60098969,-99999.0,'11111222,11111222,99999999' 
TABS,ioos:station:wmo:42050:1,2008-02-02T20:00:00Z,28.8425,-94.2433,2.0,19.20018974,12.31500711,-99999.0,'11111222,11111222,99999999' 
TABS,ioos:station:wmo:42050:1,2008-02-02T20:30:00Z,28.8425,-94.2433,2.0,32.55807547,11.6509785,-99999.0,'11111222,11111222,99999999' 
TABS,ioos:station:wmo:42050:1,2008-02-02T21:00:00Z,28.8425,-94.2433,2.0,35.11442892,9.596504572,-99999.0,'11133222,11111222,99999999' 
TABS,ioos:station:wmo:42050:1,2008-02-02T21:30:00Z,28.8425,-94.2433,2.0,42.65875996,10.21207618,-99999.0,'11111222,11111222,99999999' 
TABS,ioos:station:wmo:42050:1,2008-02-02T22:00:00Z,28.8425,-94.2433,2.0,48.01949494,6.443616997,-99999.0,'11133222,11111222,99999999' 
TABS,ioos:station:wmo:42050:1,2008-02-02T22:30:00Z,28.8425,-94.2433,2.0,56.65141134,7.912938771,-99999.0,'11133222,11111222,99999999' 
TABS,ioos:station:wmo:42050:1,2008-02-02T23:00:00Z,28.8425,-94.2433,2.0,53.19748961,5.108003524,-99999.0,'11133222,11111222,99999999' 
TABS,ioos:station:wmo:42050:1,2008-02-02T23:30:00Z,28.8425,-94.2433,2.0,61.89206698,6.643530688,-99999.0,'11133222,11111222,99999999' 
TABS,ioos:station:wmo:42050:1,2008-02-03T00:00:00Z,28.8425,-94.2433,2.0,42.87901379,4.776243294,-99999.0,'11133222,11111222,99999999' 
TABS,ioos:station:wmo:42050:1,2008-02-03T00:30:00Z,28.8425,-94.2433,2.0,66.70549122,6.271204031,-99999.0,'11133222,11111222,99999999' 
TABS,ioos:station:wmo:42050:1,2008-02-03T01:00:00Z,28.8425,-94.2433,2.0,57.23157755,5.173248496,-99999.0,'11133222,11111222,99999999' 
TABS,ioos:station:wmo:42050:1,2008-02-03T01:30:00Z,28.8425,-94.2433,2.0,28.25609282,6.06238402,-99999.0,'11133222,11111222,99999999' 
TABS,ioos:station:wmo:42050:1,2008-02-03T02:00:00Z,28.8425,-94.2433,2.0,35.60371269,6.063480848,-99999.0,'11133222,11111222,99999999' 
TABS,ioos:station:wmo:42050:1,2008-02-03T02:30:00Z,28.8425,-94.2433,2.0,28.67990312,5.938568851,-99999.0,'11133222,11111222,99999999' 
TABS,ioos:station:wmo:42050:1,2008-02-03T03:00:00Z,28.8425,-94.2433,2.0,19.83229393,7.133056848,-99999.0,'11133222,11111222,99999999' 
TABS,ioos:station:wmo:42050:1,2008-02-03T03:30:00Z,28.8425,-94.2433,2.0,16.02808795,5.722447029,-99999.0,'11133222,11111222,99999999' 
TABS,ioos:station:wmo:42050:1,2008-02-03T04:00:00Z,28.8425,-94.2433,2.0,9.159446199,5.905294235,-99999.0,'11133222,11111222,99999999' 
TABS,ioos:station:wmo:42050:1,2008-02-03T04:30:00Z,28.8425,-94.2433,2.0,2.042301895,6.173920958,-99999.0,'11133222,11111222,99999999' 
TABS,ioos:station:wmo:42050:1,2008-02-03T05:00:00Z,28.8425,-94.2433,2.0,15.45800658,6.941080608,-99999.0,'11133222,11111222,99999999' 
TABS,ioos:station:wmo:42050:1,2008-02-03T05:30:00Z,28.8425,-94.2433,2.0,358.5736023,5.221618523,-99999.0,'11133222,11111222,99999999' 
TABS,ioos:station:wmo:42050:1,2008-02-03T06:00:00Z,28.8425,-94.2433,2.0,6.115699724,4.224038352,-99999.0,'11133222,11111222,99999999' 
TABS,ioos:station:wmo:42050:1,2008-02-03T06:30:00Z,28.8425,-94.2433,2.0,352.4607829,1.371860051,-99999.0,'11133222,11111222,99999999' 
TABS,ioos:station:wmo:42050:1,2008-02-03T07:00:00Z,28.8425,-94.2433,2.0,233.8803227,0.4580393,-99999.0,'11133222,11111222,99999999' 
TABS,ioos:station:wmo:42050:1,2008-02-03T07:30:00Z,28.8425,-94.2433,2.0,229.8527694,1.504460036,-99999.0,'11133222,11111222,99999999' 
TABS,ioos:station:wmo:42050:1,2008-02-03T08:00:00Z,28.8425,-94.2433,2.0,257.195343,1.128051417,-99999.0,'11133222,11111222,99999999' 
TABS,ioos:station:wmo:42050:1,2008-02-03T08:30:00Z,28.8425,-94.2433,2.0,230.9641575,2.858041287,-99999.0,'11133222,11111222,99999999' 
TABS,ioos:station:wmo:42050:1,2008-02-03T09:00:00Z,28.8425,-94.2433,2.0,232.3763931,6.388552262,-99999.0,'11133222,11111222,99999999' 
TABS,ioos:station:wmo:42050:1,2008-02-03T09:30:00Z,28.8425,-94.2433,2.0,209.3413756,5.816132736,-99999.0,'11133222,11111222,99999999' 
TABS,ioos:station:wmo:42050:1,2008-02-03T10:00:00Z,28.8425,-94.2433,2.0,215.7635657,5.595042448,-99999.0,'11133222,11111222,99999999' 
TABS,ioos:station:wmo:42050:1,2008-02-03T10:30:00Z,28.8425,-94.2433,2.0,253.9894247,4.858446254,-99999.0,'11133222,11111222,99999999' 
TABS,ioos:station:wmo:42050:1,2008-02-03T11:00:00Z,28.8425,-94.2433,2.0,254.9158504,5.571974515,-99999.0,'11133222,11111222,99999999' 
TABS,ioos:station:wmo:42050:1,2008-02-03T11:30:00Z,28.8425,-94.2433,2.0,274.1758873,5.905675237,-99999.0,'11133222,11111222,99999999' 
TABS,ioos:station:wmo:42050:1,2008-02-03T12:00:00Z,28.8425,-94.2433,2.0,290.9561486,8.052626901,-99999.0,'11133222,11111222,99999999' 
TABS,ioos:station:wmo:42050:1,2008-02-03T12:30:00Z,28.8425,-94.2433,2.0,320.7108955,8.527602242,-99999.0,'11133222,11111222,99999999' 
TABS,ioos:station:wmo:42050:1,2008-02-03T13:00:00Z,28.8425,-94.2433,2.0,317.7392229,9.174584459,-99999.0,'11133222,11111222,99999999' 
TABS,ioos:station:wmo:42050:1,2008-02-03T13:30:00Z,28.8425,-94.2433,2.0,345.2642131,7.744740151,-99999.0,'11133222,11111222,99999999' 
TABS,ioos:station:wmo:42050:1,2008-02-03T14:00:00Z,28.8425,-94.2433,2.0,350.378068,11.78580926,-99999.0,'11111222,11111222,99999999' 
TABS,ioos:station:wmo:42050:1,2008-02-03T14:30:00Z,28.8425,-94.2433,2.0,350.8671132,13.7341181,-99999.0,'11111222,11111222,99999999' 
TABS,ioos:station:wmo:42050:1,2008-02-03T15:00:00Z,28.8425,-94.2433,2.0,355.4030486,15.72057569,-99999.0,'11111222,11111222,99999999' 
TABS,ioos:station:wmo:42050:1,2008-02-03T15:30:00Z,28.8425,-94.2433,2.0,0.171651137,16.71007481,-99999.0,'11111222,11111222,99999999' 
TABS,ioos:station:wmo:42050:1,2008-02-03T16:00:00Z,28.8425,-94.2433,2.0,2.916816349,18.47393028,-99999.0,'11111222,11111222,99999999' 
TABS,ioos:station:wmo:42050:1,2008-02-03T16:30:00Z,28.8425,-94.2433,2.0,7.352572626,16.87877958,-99999.0,'11111222,11111222,99999999' 
TABS,ioos:station:wmo:42050:1,2008-02-03T17:00:00Z,28.8425,-94.2433,2.0,4.938674608,19.05072177,-99999.0,'11111222,11111222,99999999' 
TABS,ioos:station:wmo:42050:1,2008-02-03T17:30:00Z,28.8425,-94.2433,2.0,12.87370657,21.63378145,-99999.0,'11111222,11111222,99999999' 
TABS,ioos:station:wmo:42050:1,2008-02-03T18:00:00Z,28.8425,-94.2433,2.0,19.57002358,18.36062363,-99999.0,'11111222,11111222,99999999' 
TABS,ioos:station:wmo:42050:1,2008-02-03T18:30:00Z,28.8425,-94.2433,2.0,23.87793671,17.16952242,-99999.0,'11111222,11111222,99999999' 
TABS,ioos:station:wmo:42050:1,2008-02-03T19:00:00Z,28.8425,-94.2433,2.0,28.29565943,14.80952396,-99999.0,'11111222,11111222,99999999' 
TABS,ioos:station:wmo:42050:1,2008-02-03T19:30:00Z,28.8425,-94.2433,2.0,25.06216011,16.87917652,-99999.0,'11111222,11111222,99999999' 
TABS,ioos:station:wmo:42050:1,2008-02-03T20:00:00Z,28.8425,-94.2433,2.0,34.89358477,15.71534918,-99999.0,'11111222,11111222,99999999' 
TABS,ioos:station:wmo:42050:1,2008-02-03T20:30:00Z,28.8425,-94.2433,2.0,41.83328803,13.82383449,-99999.0,'11111222,11111222,99999999' 
TABS,ioos:station:wmo:42050:1,2008-02-03T21:00:00Z,28.8425,-94.2433,2.0,50.5218286,13.44793293,-99999.0,'11111222,11111222,99999999' 
TABS,ioos:station:wmo:42050:1,2008-02-03T21:30:00Z,28.8425,-94.2433,2.0,52.85141974,13.97616543,-99999.0,'11111222,11111222,99999999' 
TABS,ioos:station:wmo:42050:1,2008-02-03T22:00:00Z,28.8425,-94.2433,2.0,68.45599056,13.64317412,-99999.0,'11111222,11111222,99999999' 
TABS,ioos:station:wmo:42050:1,2008-02-03T22:30:00Z,28.8425,-94.2433,2.0,65.4130739,11.27202732,-99999.0,'11111222,11111222,99999999' 
TABS,ioos:station:wmo:42050:1,2008-02-03T23:00:00Z,28.8425,-94.2433,2.0,57.90082305,13.58707106,-99999.0,'11111222,11111222,99999999' 
TABS,ioos:station:wmo:42050:1,2008-02-03T23:30:00Z,28.8425,-94.2433,2.0,76.81668487,13.19782558,-99999.0,'11111222,11111222,99999999' 
TABS,ioos:station:wmo:42050:1,2008-02-04T00:00:00Z,28.8425,-94.2433,2.0,78.00312875,10.6322199,-99999.0,'11111222,11111222,99999999' 
TABS,ioos:station:wmo:42050:1,2008-02-04T00:30:00Z,28.8425,-94.2433,2.0,70.23538396,10.08405672,-99999.0,'11111222,11111222,99999999' 
TABS,ioos:station:wmo:42050:1,2008-02-04T01:00:00Z,28.8425,-94.2433,2.0,77.32133143,8.292195126,-99999.0,'11133222,11111222,99999999' 
TABS,ioos:station:wmo:42050:1,2008-02-04T01:30:00Z,28.8425,-94.2433,2.0,76.9447833,7.791386269,-99999.0,'11133222,11111222,99999999' 
TABS,ioos:station:wmo:42050:1,2008-02-04T02:00:00Z,28.8425,-94.2433,2.0,58.98810076,6.113926725,-99999.0,'11133222,11111222,99999999' 
TABS,ioos:station:wmo:42050:1,2008-02-04T02:30:00Z,28.8425,-94.2433,2.0,75.81192696,6.405388357,-99999.0,'11133222,11111222,99999999' 
TABS,ioos:station:wmo:42050:1,2008-02-04T03:00:00Z,28.8425,-94.2433,2.0,76.66830165,6.11478536,-99999.0,'11133222,11111222,99999999' 
TABS,ioos:station:wmo:42050:1,2008-02-04T03:30:00Z,28.8425,-94.2433,2.0,93.12922094,4.39655547,-99999.0,'11133222,11111222,99999999' 
TABS,ioos:station:wmo:42050:1,2008-02-04T04:00:00Z,28.8425,-94.2433,2.0,66.95645609,2.912387337,-99999.0,'11133222,11111222,99999999' 
TABS,ioos:station:wmo:42050:1,2008-02-04T04:30:00Z,28.8425,-94.2433,2.0,109.9105796,4.052221613,-99999.0,'11133222,11111222,99999999' 
TABS,ioos:station:wmo:42050:1,2008-02-04T05:00:00Z,28.8425,-94.2433,2.0,147.3347548,2.945929395,-99999.0,'11133222,11111222,99999999' 
TABS,ioos:station:wmo:42050:1,2008-02-04T05:30:00Z,28.8425,-94.2433,2.0,171.1493927,2.924824781,-99999.0,'11133222,11111222,99999999' 
TABS,ioos:station:wmo:42050:1,2008-02-04T06:00:00Z,28.8425,-94.2433,2.0,154.8720241,6.240592921,-99999.0,'11133222,11111222,99999999' 
TABS,ioos:station:wmo:42050:1,2008-02-04T06:30:00Z,28.8425,-94.2433,2.0,170.6086465,6.618708333,-99999.0,'11133222,11111222,99999999' 
TABS,ioos:station:wmo:42050:1,2008-02-04T07:00:00Z,28.8425,-94.2433,2.0,196.1406639,8.453218322,-99999.0,'11133222,11111222,99999999' 
TABS,ioos:station:wmo:42050:1,2008-02-04T07:30:00Z,28.8425,-94.2433,2.0,196.0745059,7.90924143,-99999.0,'11133222,11111222,99999999' 
TABS,ioos:station:wmo:42050:1,2008-02-04T08:00:00Z,28.8425,-94.2433,2.0,217.7811339,11.8174955,-99999.0,'11111222,11111222,99999999' 
TABS,ioos:station:wmo:42050:1,2008-02-04T08:30:00Z,28.8425,-94.2433,2.0,224.4567493,14.17812752,-99999.0,'11111222,11111222,99999999' 
TABS,ioos:station:wmo:42050:1,2008-02-04T09:00:00Z,28.8425,-94.2433,2.0,223.9893886,13.63513843,-99999.0,'11111222,11111222,99999999' 
TABS,ioos:station:wmo:42050:1,2008-02-04T09:30:00Z,28.8425,-94.2433,2.0,221.9869039,11.70465292,-99999.0,'11111222,11111222,99999999' 
TABS,ioos:station:wmo:42050:1,2008-02-04T10:00:00Z,28.8425,-94.2433,2.0,225.946032,11.13137907,-99999.0,'11111222,11111222,99999999' 
TABS,ioos:station:wmo:42050:1,2008-02-04T10:30:00Z,28.8425,-94.2433,2.0,235.8150014,12.20940621,-99999.0,'11111222,11111222,99999999' 
TABS,ioos:station:wmo:42050:1,2008-02-04T11:00:00Z,28.8425,-94.2433,2.0,246.7536966,11.12297173,-99999.0,'11111222,11111222,99999999' 
TABS,ioos:station:wmo:42050:1,2008-02-04T11:30:00Z,28.8425,-94.2433,2.0,254.5879258,10.91239662,-99999.0,'11111222,11111222,99999999' 
TABS,ioos:station:wmo:42050:1,2008-02-04T12:00:00Z,28.8425,-94.2433,2.0,268.3464195,12.8253382,-99999.0,'11111222,11111222,99999999' 
TABS,ioos:station:wmo:42050:1,2008-02-04T12:30:00Z,28.8425,-94.2433,2.0,277.9230007,13.27672399,-99999.0,'11111222,11111222,99999999' 
TABS,ioos:station:wmo:42050:1,2008-02-04T13:00:00Z,28.8425,-94.2433,2.0,291.6196377,13.4351256,-99999.0,'11111222,11111222,99999999' 
TABS,ioos:station:wmo:42050:1,2008-02-04T13:30:00Z,28.8425,-94.2433,2.0,301.6132398,13.92657891,-99999.0,'11111222,11111222,99999999' 
TABS,ioos:station:wmo:42050:1,2008-02-04T14:00:00Z,28.8425,-94.2433,2.0,312.3037035,14.27815464,-99999.0,'11111222,11111222,99999999' 
TABS,ioos:station:wmo:42050:1,2008-02-04T14:30:00Z,28.8425,-94.2433,2.0,319.5004189,15.32073758,-99999.0,'11111222,11111222,99999999' 
TABS,ioos:station:wmo:42050:1,2008-02-04T15:00:00Z,28.8425,-94.2433,2.0,323.4988547,13.68428296,-99999.0,'11111222,11111222,99999999' 
TABS,ioos:station:wmo:42050:1,2008-02-04T15:30:00Z,28.8425,-94.2433,2.0,329.0907425,18.12397859,-99999.0,'11111222,11111222,99999999' 
TABS,ioos:station:wmo:42050:1,2008-02-04T16:00:00Z,28.8425,-94.2433,2.0,338.0349833,18.17964796,-99999.0,'11111222,11111222,99999999' 